Weather History for KBVS - January, 2014

Change the Weather History Date:

Friday, January 3, 2014

  Actual Average Record
Temperature  
Mean Temperature 39 °F -  
Max Temperature 46 °F 42 °F 58 °F (1984)
Min Temperature 32 °F 32 °F 11 °F (1959)
Degree Days  
Heating Degree Days 26    
Moisture  
Dew Point 38 °F    
Average Humidity 95    
Maximum Humidity 100    
Minimum Humidity 71    
Precipitation  
Precipitation 0.00 in - - ()
Sea Level Pressure  
Sea Level Pressure 30.20 in    
Wind  
Wind Speed 2 mph (NW)    
Max Wind Speed 8 mph    
Max Gust Speed -    
Visibility 9 miles    
Events      
Averages and records for this station are not official NWS values.
T = Trace of Precipitation, MM = Missing Value Source: NWS Daily Summary

Daily Weather History Graph

Daily Weather History Graph

Search for Another Location

Airport or City:

Trip Planner

Search our weather history database for the weather conditions in past years. The results will help you decide how hot, cold, wet, or windy it might be!

Date:

Astronomy

Jan. 03, 2014 Rise Set
Actual Time 8:01 AM PST 4:27 PM PST
Civil Twilight 7:24 AM PST 5:04 PM PST
Nautical Twilight 6:45 AM PST 5:43 PM PST
Astronomical Twilight 6:07 AM PST 6:21 PM PST
Moon 9:16 AM PST (1/3) 8:00 PM PST (1/3)
Length of Visible Light 9h 39m
Length of Day
8h 26m
Waxing Crescent, 8% of the Moon is Illuminated
Jan 3
Waxing Crescent
Jan 7
First Quarter
Jan 15
Full
Jan 23
Last Quarter
Jan 30
New

Hourly Weather History & Observations

Time (PST) Temp. Windchill Dew Point Humidity Pressure Visibility Wind Dir Wind Speed Gust Speed Precip Events Conditions
12:15 AM 42.8 °F - 42.8 °F 100% 30.00 in 10.0 mi Calm Calm - 0.00 in   Mostly Cloudy
12:35 AM 41.0 °F - 41.0 °F 100% 30.01 in 10.0 mi Calm Calm - 0.00 in   Overcast
12:55 AM 42.8 °F 41.1 °F 42.8 °F 100% 30.01 in 10.0 mi West 3.5 mph - 0.00 in   Mostly Cloudy
1:15 AM 41.0 °F - 41.0 °F 100% 30.02 in 10.0 mi Calm Calm - 0.00 in   Mostly Cloudy
1:35 AM 42.8 °F - 42.8 °F 100% 30.03 in 9.0 mi Calm Calm - 0.00 in   Mostly Cloudy
1:55 AM 42.8 °F 41.1 °F 42.8 °F 100% 30.05 in 10.0 mi West 3.5 mph - 0.00 in   Scattered Clouds
2:15 AM 41.0 °F - 41.0 °F 100% 30.06 in 10.0 mi Calm Calm - 0.00 in   Partly Cloudy
2:35 AM 39.2 °F - 39.2 °F 100% 30.07 in 10.0 mi Calm Calm - 0.00 in   Clear
2:55 AM 37.4 °F - 37.4 °F 100% 30.09 in 7.0 mi Calm Calm - 0.00 in   Clear
3:15 AM 37.4 °F - 37.4 °F 100% 30.10 in 1.5 mi Calm Calm - 0.00 in   Clear
3:35 AM 35.6 °F - 35.6 °F 100% 30.10 in 1.0 mi Calm Calm - 0.00 in   Scattered Clouds
3:55 AM 37.4 °F - 37.4 °F 100% 30.10 in 5.0 mi Calm Calm - 0.00 in   Partly Cloudy
4:15 AM 39.2 °F - 39.2 °F 100% 30.10 in 10.0 mi Calm Calm - 0.00 in   Partly Cloudy
4:35 AM 35.6 °F - 35.6 °F 100% 30.10 in 5.0 mi Calm Calm - 0.00 in   Clear
4:55 AM 35.6 °F - 35.6 °F 100% 30.11 in 5.0 mi Calm Calm - 0.00 in   Clear
5:15 AM 35.6 °F - 35.6 °F 100% 30.12 in 5.0 mi Calm Calm - 0.00 in   Clear
5:35 AM 35.6 °F - 35.6 °F 100% 30.12 in 5.0 mi Calm Calm - 0.00 in   Clear
5:55 AM 35.6 °F - 35.6 °F 100% 30.13 in 0.8 mi Calm Calm - 0.00 in   Mostly Cloudy
6:15 AM 33.8 °F - 33.8 °F 100% 30.13 in 3.0 mi Calm Calm - 0.00 in   Partly Cloudy
6:35 AM 33.8 °F - 33.8 °F 100% 30.14 in 5.0 mi Calm Calm - 0.00 in   Clear
6:55 AM 35.6 °F - 35.6 °F 100% 30.15 in 5.0 mi Calm Calm - 0.00 in   Scattered Clouds
7:15 AM 35.6 °F - 35.6 °F 100% 30.15 in 8.0 mi Calm Calm - 0.00 in   Mostly Cloudy
7:35 AM 35.6 °F - 35.6 °F 100% 30.15 in 8.0 mi Calm Calm - 0.00 in   Partly Cloudy
7:55 AM 37.4 °F 33.8 °F 37.4 °F 100% 30.15 in 10.0 mi South 4.6 mph - 0.00 in   Clear
8:15 AM 39.2 °F 34.2 °F 39.2 °F 100% 30.16 in 9.0 mi South 6.9 mph - 0.00 in   Clear
8:35 AM 39.2 °F 35.0 °F 39.2 °F 100% 30.16 in 9.0 mi South 5.8 mph - 0.00 in   Clear
8:55 AM 35.6 °F - 35.6 °F 100% 30.17 in 5.0 mi Calm Calm - 0.00 in   Clear
9:15 AM 37.4 °F - 37.4 °F 100% 30.18 in 10.0 mi Calm Calm - 0.00 in   Clear
9:35 AM 39.2 °F 35.9 °F 39.2 °F 100% 30.18 in 10.0 mi SE 4.6 mph - 0.00 in   Clear
9:55 AM 42.8 °F 39.3 °F 42.8 °F 100% 30.18 in 10.0 mi South 5.8 mph - 0.00 in   Clear
10:15 AM 42.8 °F 41.1 °F 42.8 °F 100% 30.18 in 10.0 mi SSW 3.5 mph - 0.00 in   Clear
10:35 AM 42.8 °F 38.0 °F 42.8 °F 100% 30.19 in 10.0 mi SW 8.1 mph - 0.00 in   Scattered Clouds
10:55 AM 42.8 °F 39.3 °F 42.8 °F 100% 30.19 in 10.0 mi West 5.8 mph - 0.00 in   Partly Cloudy
11:15 AM 44.6 °F 43.1 °F 44.6 °F 100% 30.19 in 10.0 mi SSW 3.5 mph - 0.00 in   Mostly Cloudy
11:35 AM 44.6 °F - 42.8 °F 93% 30.19 in 10.0 mi Calm Calm - 0.00 in   Overcast
11:55 AM 44.6 °F 41.4 °F 42.8 °F 93% 30.20 in 10.0 mi WSW 5.8 mph - 0.00 in   Overcast
12:15 PM 44.6 °F 42.2 °F 41.0 °F 87% 30.20 in 10.0 mi WSW 4.6 mph - 0.00 in   Mostly Cloudy
12:35 PM 46.4 °F 42.9 °F 37.4 °F 71% 30.20 in 10.0 mi WSW 6.9 mph - 0.00 in   Mostly Cloudy
12:55 PM 46.4 °F 45.2 °F 37.4 °F 71% 30.20 in 10.0 mi WNW 3.5 mph - 0.00 in   Overcast
1:15 PM 46.4 °F 44.3 °F 39.2 °F 76% 30.20 in 10.0 mi West 4.6 mph - 0.00 in   Overcast
1:35 PM 44.6 °F 40.7 °F 37.4 °F 76% 30.21 in 10.0 mi NW 6.9 mph - 0.00 in   Overcast
1:55 PM 44.6 °F 40.2 °F 39.2 °F 81% 30.22 in 10.0 mi North 8.1 mph - 0.00 in   Overcast
2:15 PM 44.6 °F 40.2 °F 37.4 °F 76% 30.22 in 10.0 mi NNW 8.1 mph - 0.00 in   Overcast
2:35 PM 44.6 °F 41.4 °F 37.4 °F 76% 30.23 in 10.0 mi NNW 5.8 mph - 0.00 in   Overcast
2:55 PM 44.6 °F - 39.2 °F 81% 30.23 in 10.0 mi Calm Calm - 0.00 in   Overcast
3:15 PM 44.6 °F 40.2 °F 39.2 °F 81% 30.24 in 10.0 mi NNW 8.1 mph - 0.00 in   Overcast
3:35 PM 44.6 °F 42.2 °F 39.2 °F 81% 30.24 in 10.0 mi NW 4.6 mph - 0.00 in   Overcast
3:55 PM 44.6 °F 41.4 °F 37.4 °F 76% 30.26 in 10.0 mi WNW 5.8 mph - 0.00 in   Overcast
4:15 PM 44.6 °F 42.2 °F 37.4 °F 76% 30.26 in 10.0 mi WNW 4.6 mph - 0.00 in   Overcast
4:35 PM 42.8 °F - 39.2 °F 87% 30.27 in 10.0 mi Calm Calm - 0.00 in   Overcast
4:55 PM 42.8 °F 38.6 °F 37.4 °F 81% 30.27 in 10.0 mi WNW 6.9 mph - 0.00 in   Overcast
5:15 PM 42.8 °F 40.1 °F 39.2 °F 87% 30.27 in 10.0 mi WNW 4.6 mph - 0.00 in   Overcast
5:35 PM 42.8 °F 39.3 °F 41.0 °F 93% 30.28 in 10.0 mi NW 5.8 mph - 0.00 in   Overcast
5:55 PM 42.8 °F - 41.0 °F 93% 30.28 in 10.0 mi Calm Calm - 0.00 in   Overcast
6:15 PM 41.0 °F - 41.0 °F 100% 30.28 in 10.0 mi Calm Calm - 0.00 in   Overcast
6:35 PM 39.2 °F - 39.2 °F 100% 30.29 in 10.0 mi Calm Calm - 0.00 in   Mostly Cloudy
6:55 PM 39.2 °F - 39.2 °F 100% 30.30 in 10.0 mi Calm Calm - 0.00 in   Partly Cloudy
7:15 PM 37.4 °F 32.8 °F 37.4 °F 100% 30.31 in 10.0 mi NNE 5.8 mph - 0.00 in   Partly Cloudy
7:35 PM 37.4 °F 33.8 °F 37.4 °F 100% 30.31 in 10.0 mi NNE 4.6 mph - 0.00 in   Partly Cloudy
7:55 PM 35.6 °F 31.7 °F 35.6 °F 100% 30.32 in 10.0 mi NE 4.6 mph - 0.00 in   Clear
8:15 PM 35.6 °F 31.7 °F 35.6 °F 100% 30.33 in 10.0 mi NE 4.6 mph - 0.00 in   Clear
8:35 PM 35.6 °F 30.7 °F 35.6 °F 100% 30.33 in 10.0 mi NNE 5.8 mph - 0.00 in   Clear
8:55 PM 35.6 °F 30.7 °F 35.6 °F 100% 30.33 in 10.0 mi NE 5.8 mph - 0.00 in   Clear
9:15 PM 35.6 °F 31.7 °F 35.6 °F 100% 30.33 in 10.0 mi NE 4.6 mph - 0.00 in   Clear
9:35 PM 35.6 °F - 35.6 °F 100% 30.34 in 10.0 mi Calm Calm - 0.00 in   Clear
9:55 PM 32.0 °F - 32.0 °F 100% 30.36 in 10.0 mi Calm Calm - 0.00 in   Clear
10:15 PM 32.0 °F 27.5 °F 32.0 °F 100% 30.36 in 10.0 mi NE 4.6 mph - 0.00 in   Clear
10:35 PM 33.8 °F 30.8 °F 33.8 °F 100% 30.36 in 10.0 mi NNW 3.5 mph - 0.00 in   Clear
10:55 PM 35.6 °F - 35.6 °F 100% 30.37 in 10.0 mi Calm Calm - 0.00 in   Clear
11:15 PM 33.8 °F 29.6 °F 33.8 °F 100% 30.38 in 10.0 mi North 4.6 mph - 0.00 in   Clear
11:35 PM 33.8 °F - 33.8 °F 100% 30.38 in 10.0 mi Calm Calm - 0.00 in   Clear
11:55 PM 33.8 °F 30.8 °F 33.8 °F 100% 30.38 in 10.0 mi NNE 3.5 mph - 0.00 in   Clear